date,time,SUV Intensity [MED/Hr],UV Index,Daily total [MED],Since Last [MED]
09/04/2022,00:06:50,-0.001,0.0,0.0,0.0
09/04/2022,00:07:41,-0.001,0.0,0.0,0.0
09/04/2022,00:08:41,-0.001,0.0,0.0,0.0
09/04/2022,00:09:42,0.001,0.0,0.0,0.0
09/04/2022,00:10:42,-0.000,0.0,0.0,0.0
09/04/2022,00:11:42,0.000,0.0,0.0,0.0
09/04/2022,00:12:42,-0.000,0.0,0.0,0.0
09/04/2022,00:13:42,0.000,0.0,0.0,0.0
09/04/2022,00:14:42,0.000,0.0,0.0,0.0
09/04/2022,00:15:42,-0.001,0.0,0.0,0.0
09/04/2022,00:16:41,0.001,0.0,0.0,0.0
09/04/2022,00:17:42,-0.001,0.0,0.0,0.0
09/04/2022,00:18:41,0.000,0.0,0.0,0.0
09/04/2022,00:19:42,0.000,0.0,0.0,0.0
09/04/2022,00:20:42,0.000,0.0,0.0,0.0
09/04/2022,00:21:42,0.000,0.0,0.0,0.0
09/04/2022,00:22:42,0.000,0.0,0.0,0.0
09/04/2022,00:23:42,-0.000,0.0,0.0,0.0
09/04/2022,00:24:50,0.001,0.0,0.0,0.0
09/04/2022,00:26:43,0.000,0.0,0.0,0.0
09/04/2022,00:27:42,0.001,0.0,0.0,0.0
09/04/2022,00:28:42,0.000,0.0,0.0,0.0
09/04/2022,00:29:42,0.000,0.0,0.0,0.0
09/04/2022,00:30:42,0.000,0.0,0.0,0.0
09/04/2022,00:31:42,0.000,0.0,0.0,0.0
09/04/2022,00:32:42,0.001,0.0,0.0,0.0
09/04/2022,00:33:42,0.000,0.0,0.0,0.0
09/04/2022,00:34:42,-0.001,0.0,0.0,0.0
09/04/2022,00:35:42,-0.000,0.0,0.0,0.0
09/04/2022,00:36:42,0.000,0.0,0.0,0.0
09/04/2022,00:37:42,0.000,0.0,0.0,0.0
09/04/2022,00:38:42,0.000,0.0,0.0,0.0
09/04/2022,00:39:42,0.000,0.0,0.0,0.0
09/04/2022,00:40:42,0.001,0.0,0.0,0.0
09/04/2022,00:41:42,0.000,0.0,0.0,0.0
09/04/2022,00:42:41,0.000,0.0,0.0,0.0
09/04/2022,00:43:42,0.000,0.0,0.0,0.0
09/04/2022,00:44:42,0.000,0.0,0.0,0.0
09/04/2022,00:45:50,0.000,0.0,0.0,0.0
09/04/2022,00:46:41,-0.000,0.0,0.0,0.0
09/04/2022,00:47:42,-0.001,0.0,0.0,0.0
09/04/2022,00:48:42,0.000,0.0,0.0,0.0
09/04/2022,00:49:43,0.000,0.0,0.0,0.0
09/04/2022,00:50:42,0.000,0.0,0.0,0.0
09/04/2022,00:51:42,0.000,0.0,0.0,0.0
09/04/2022,00:52:42,0.000,0.0,0.0,0.0
09/04/2022,00:53:42,0.000,0.0,0.0,0.0
09/04/2022,00:54:42,-0.001,0.0,0.0,0.0
09/04/2022,00:55:42,0.000,0.0,0.0,0.0
09/04/2022,00:56:42,0.001,0.0,0.0,0.0
09/04/2022,00:57:42,0.001,0.0,0.0,0.0
09/04/2022,00:58:42,0.000,0.0,0.0,0.0
09/04/2022,00:59:43,0.001,0.0,0.0,0.0
09/04/2022,01:00:42,-0.001,0.0,0.0,0.0
09/04/2022,01:01:42,-0.001,0.0,0.0,0.0
09/04/2022,01:02:42,0.000,0.0,0.0,0.0
09/04/2022,01:03:42,0.001,0.0,0.0,0.0
09/04/2022,01:04:42,0.000,0.0,0.0,0.0
09/04/2022,01:05:42,-0.000,0.0,0.0,0.0
09/04/2022,01:06:42,-0.000,0.0,0.0,0.0
09/04/2022,01:07:42,0.000,0.0,0.0,0.0
09/04/2022,01:08:42,0.001,0.0,0.0,0.0
09/04/2022,01:09:42,0.001,0.0,0.0,0.0
09/04/2022,01:10:50,-0.001,0.0,0.0,0.0
09/04/2022,01:12:42,-0.000,0.0,0.0,0.0
09/04/2022,01:13:42,-0.001,0.0,0.0,0.0
09/04/2022,01:14:42,0.000,0.0,0.0,0.0
09/04/2022,01:15:42,0.001,0.0,0.0,0.0
09/04/2022,01:16:42,0.000,0.0,0.0,0.0
09/04/2022,01:17:42,0.000,0.0,0.0,0.0
09/04/2022,01:18:42,-0.001,0.0,0.0,0.0
09/04/2022,01:19:42,0.000,0.0,0.0,0.0
09/04/2022,01:20:42,0.000,0.0,0.0,0.0
09/04/2022,01:21:42,0.000,0.0,0.0,0.0
09/04/2022,01:22:42,-0.001,0.0,0.0,0.0
09/04/2022,01:23:42,0.000,0.0,0.0,0.0
09/04/2022,01:24:50,0.000,0.0,0.0,0.0
09/04/2022,01:25:41,0.001,0.0,0.0,0.0
09/04/2022,01:26:42,0.000,0.0,0.0,0.0
09/04/2022,01:27:42,0.000,0.0,0.0,0.0
09/04/2022,01:28:42,0.001,0.0,0.0,0.0
09/04/2022,01:29:42,0.001,0.0,0.0,0.0
09/04/2022,01:30:42,0.000,0.0,0.0,0.0
09/04/2022,01:31:42,-0.000,0.0,0.0,0.0
09/04/2022,01:32:50,0.000,0.0,0.0,0.0
09/04/2022,01:33:42,0.000,0.0,0.0,0.0
09/04/2022,01:34:50,-0.000,0.0,0.0,0.0
09/04/2022,01:35:50,0.001,0.0,0.0,0.0
09/04/2022,01:36:42,0.001,0.0,0.0,0.0
09/04/2022,01:37:42,-0.001,0.0,0.0,0.0
09/04/2022,01:38:42,0.001,0.0,0.0,0.0
09/04/2022,01:39:42,0.000,0.0,0.0,0.0
09/04/2022,01:40:42,0.000,0.0,0.0,0.0
09/04/2022,01:41:42,0.000,0.0,0.0,0.0
09/04/2022,01:42:50,0.000,0.0,0.0,0.0
09/04/2022,01:44:43,0.000,0.0,0.0,0.0
09/04/2022,01:45:51,0.000,0.0,0.0,0.0
09/04/2022,01:46:42,0.001,0.0,0.0,0.0
09/04/2022,01:47:42,0.000,0.0,0.0,0.0
09/04/2022,01:48:42,0.000,0.0,0.0,0.0
09/04/2022,01:49:43,0.000,0.0,0.0,0.0
09/04/2022,01:50:42,0.000,0.0,0.0,0.0
09/04/2022,01:51:42,0.000,0.0,0.0,0.0
09/04/2022,01:52:43,-0.001,0.0,0.0,0.0
09/04/2022,01:53:42,0.000,0.0,0.0,0.0
09/04/2022,01:54:42,0.000,0.0,0.0,0.0
09/04/2022,01:55:42,-0.000,0.0,0.0,0.0
09/04/2022,01:56:42,-0.001,0.0,0.0,0.0
09/04/2022,01:57:58,0.000,0.0,0.0,0.0
09/04/2022,01:59:42,-0.002,0.0,0.0,0.0
09/04/2022,02:00:42,0.000,0.0,0.0,0.0
09/04/2022,02:01:42,-0.000,0.0,0.0,0.0
09/04/2022,02:02:43,0.000,0.0,0.0,0.0
09/04/2022,02:03:42,0.001,0.0,0.0,0.0
09/04/2022,02:04:42,0.001,0.0,0.0,0.0
09/04/2022,02:05:42,0.000,0.0,0.0,0.0
09/04/2022,02:06:42,0.000,0.0,0.0,0.0
09/04/2022,02:07:42,0.000,0.0,0.0,0.0
09/04/2022,02:08:42,0.001,0.0,0.0,0.0
09/04/2022,02:09:42,0.000,0.0,0.0,0.0
09/04/2022,02:10:51,0.000,0.0,0.0,0.0
09/04/2022,02:12:42,0.000,0.0,0.0,0.0
09/04/2022,02:13:42,0.001,0.0,0.0,0.0
09/04/2022,02:14:42,0.000,0.0,0.0,0.0
09/04/2022,02:15:42,0.000,0.0,0.0,0.0
09/04/2022,02:16:42,0.000,0.0,0.0,0.0
09/04/2022,02:17:42,0.001,0.0,0.0,0.0
09/04/2022,02:18:51,0.000,0.0,0.0,0.0
09/04/2022,02:20:43,-0.000,0.0,0.0,0.0
09/04/2022,02:21:51,0.001,0.0,0.0,0.0
09/04/2022,02:22:42,0.000,0.0,0.0,0.0
09/04/2022,02:23:43,0.001,0.0,0.0,0.0
09/04/2022,02:24:42,-0.001,0.0,0.0,0.0
09/04/2022,02:25:42,0.000,0.0,0.0,0.0
09/04/2022,02:26:42,0.001,0.0,0.0,0.0
09/04/2022,02:27:42,0.001,0.0,0.0,0.0
09/04/2022,02:28:42,0.001,0.0,0.0,0.0
09/04/2022,02:29:42,0.001,0.0,0.0,0.0
09/04/2022,02:30:42,0.001,0.0,0.0,0.0
09/04/2022,02:31:42,0.000,0.0,0.0,0.0
09/04/2022,02:32:42,0.001,0.0,0.0,0.0
09/04/2022,02:33:42,0.000,0.0,0.0,0.0
09/04/2022,02:34:42,0.002,0.0,0.0,0.0
09/04/2022,02:35:42,0.000,0.0,0.0,0.0
09/04/2022,02:36:42,0.000,0.0,0.0,0.0
09/04/2022,02:37:42,0.000,0.0,0.0,0.0
09/04/2022,02:38:43,0.001,0.0,0.0,0.0
09/04/2022,02:39:43,0.001,0.0,0.0,0.0
09/04/2022,02:40:42,-0.000,0.0,0.0,0.0
09/04/2022,02:41:42,0.001,0.0,0.0,0.0
09/04/2022,02:42:42,-0.001,0.0,0.0,0.0
09/04/2022,02:43:42,-0.001,0.0,0.0,0.0
09/04/2022,02:44:42,-0.001,0.0,0.0,0.0
09/04/2022,02:45:42,-0.001,0.0,0.0,0.0
09/04/2022,02:46:51,0.000,0.0,0.0,0.0
09/04/2022,02:47:41,0.001,0.0,0.0,0.0
09/04/2022,02:48:42,0.000,0.0,0.0,0.0
09/04/2022,02:49:42,-0.000,0.0,0.0,0.0
09/04/2022,02:50:49,-0.001,0.0,0.0,0.0
09/04/2022,02:52:43,0.000,0.0,0.0,0.0
09/04/2022,02:53:42,0.001,0.0,0.0,0.0
09/04/2022,02:54:43,0.001,0.0,0.0,0.0
09/04/2022,02:55:42,0.000,0.0,0.0,0.0
09/04/2022,02:56:42,0.001,0.0,0.0,0.0
09/04/2022,02:57:43,0.001,0.0,0.0,0.0
09/04/2022,02:58:45,0.000,0.0,0.0,0.0
09/04/2022,02:59:42,-0.000,0.0,0.0,0.0
09/04/2022,03:00:42,0.000,0.0,0.0,0.0
09/04/2022,03:01:43,0.001,0.0,0.0,0.0
09/04/2022,03:02:43,0.000,0.0,0.0,0.0
09/04/2022,03:03:42,0.000,0.0,0.0,0.0
09/04/2022,03:04:50,0.000,0.0,0.0,0.0
09/04/2022,03:06:43,-0.000,0.0,0.0,0.0
09/04/2022,03:07:42,0.000,0.0,0.0,0.0
09/04/2022,03:08:42,-0.000,0.0,0.0,0.0
09/04/2022,03:09:42,-0.001,0.0,0.0,0.0
09/04/2022,03:11:07,0.000,0.0,0.0,0.0
09/04/2022,03:12:42,0.000,0.0,0.0,0.0
09/04/2022,03:13:42,0.000,0.0,0.0,0.0
09/04/2022,03:14:42,0.001,0.0,0.0,0.0
09/04/2022,03:15:42,0.000,0.0,0.0,0.0
09/04/2022,03:16:42,0.001,0.0,0.0,0.0
09/04/2022,03:17:42,0.001,0.0,0.0,0.0
09/04/2022,03:18:42,0.000,0.0,0.0,0.0
09/04/2022,03:19:51,0.000,0.0,0.0,0.0
09/04/2022,03:20:42,0.000,0.0,0.0,0.0
09/04/2022,03:21:42,0.000,0.0,0.0,0.0
09/04/2022,03:22:42,-0.001,0.0,0.0,0.0
09/04/2022,03:23:42,0.000,0.0,0.0,0.0
09/04/2022,03:24:42,-0.000,0.0,0.0,0.0
09/04/2022,03:25:42,0.000,0.0,0.0,0.0
09/04/2022,03:26:42,0.000,0.0,0.0,0.0
09/04/2022,03:27:42,0.000,0.0,0.0,0.0
09/04/2022,03:28:42,0.001,0.0,0.0,0.0
09/04/2022,03:29:51,-0.001,0.0,0.0,0.0
09/04/2022,03:30:43,0.000,0.0,0.0,0.0
09/04/2022,03:31:42,0.001,0.0,0.0,0.0
09/04/2022,03:32:43,0.000,0.0,0.0,0.0
09/04/2022,03:33:43,0.001,0.0,0.0,0.0
09/04/2022,03:34:42,0.000,0.0,0.0,0.0
09/04/2022,03:35:42,0.000,0.0,0.0,0.0
09/04/2022,03:36:43,0.001,0.0,0.0,0.0
09/04/2022,03:37:42,0.000,0.0,0.0,0.0
09/04/2022,03:38:42,0.001,0.0,0.0,0.0
09/04/2022,03:39:42,0.000,0.0,0.0,0.0
09/04/2022,03:40:51,-0.000,0.0,0.0,0.0
09/04/2022,03:41:42,0.001,0.0,0.0,0.0
09/04/2022,03:42:42,0.000,0.0,0.0,0.0
09/04/2022,03:43:43,0.000,0.0,0.0,0.0
09/04/2022,03:44:42,0.001,0.0,0.0,0.0
09/04/2022,03:45:42,-0.001,0.0,0.0,0.0
09/04/2022,03:46:43,-0.001,0.0,0.0,0.0
09/04/2022,03:47:42,0.001,0.0,0.0,0.0
09/04/2022,03:48:42,-0.000,0.0,0.0,0.0
09/04/2022,03:49:42,0.001,0.0,0.0,0.0
09/04/2022,03:50:42,0.001,0.0,0.0,0.0
09/04/2022,03:51:42,0.000,0.0,0.0,0.0
09/04/2022,03:52:42,0.001,0.0,0.0,0.0
09/04/2022,03:53:43,-0.000,0.0,0.0,0.0
09/04/2022,03:54:42,0.001,0.0,0.0,0.0
09/04/2022,03:55:43,0.000,0.0,0.0,0.0
09/04/2022,03:56:42,0.001,0.0,0.0,0.0
09/04/2022,03:57:43,0.000,0.0,0.0,0.0
09/04/2022,03:58:42,0.001,0.0,0.0,0.0
09/04/2022,03:59:42,0.000,0.0,0.0,0.0
09/04/2022,04:00:42,-0.000,0.0,0.0,0.0
09/04/2022,04:01:42,0.000,0.0,0.0,0.0
09/04/2022,04:02:42,0.001,0.0,0.0,0.0
09/04/2022,04:03:43,0.000,0.0,0.0,0.0
09/04/2022,04:04:42,0.000,0.0,0.0,0.0
09/04/2022,04:05:50,0.001,0.0,0.0,0.0
09/04/2022,04:07:43,0.000,0.0,0.0,0.0
09/04/2022,04:08:42,0.000,0.0,0.0,0.0
09/04/2022,04:09:43,-0.000,0.0,0.0,0.0
09/04/2022,04:10:42,-0.001,0.0,0.0,0.0
09/04/2022,04:11:42,0.000,0.0,0.0,0.0
09/04/2022,04:12:42,0.000,0.0,0.0,0.0
09/04/2022,04:13:42,0.001,0.0,0.0,0.0
09/04/2022,04:14:43,0.001,0.0,0.0,0.0
09/04/2022,04:15:42,0.000,0.0,0.0,0.0
09/04/2022,04:16:42,-0.001,0.0,0.0,0.0
09/04/2022,04:17:42,0.000,0.0,0.0,0.0
09/04/2022,04:18:42,0.001,0.0,0.0,0.0
09/04/2022,04:19:42,0.001,0.0,0.0,0.0
09/04/2022,04:20:43,0.000,0.0,0.0,0.0
09/04/2022,04:21:43,0.001,0.0,0.0,0.0
09/04/2022,04:22:42,0.000,0.0,0.0,0.0
09/04/2022,04:23:42,0.002,0.0,0.0,0.0
09/04/2022,04:24:42,0.000,0.0,0.0,0.0
09/04/2022,04:25:43,0.001,0.0,0.0,0.0
09/04/2022,04:26:42,0.001,0.0,0.0,0.0
09/04/2022,04:27:50,0.000,0.0,0.0,0.0
09/04/2022,04:29:43,0.001,0.0,0.0,0.0
09/04/2022,04:30:44,0.001,0.0,0.0,0.0
09/04/2022,04:31:43,-0.000,0.0,0.0,0.0
09/04/2022,04:32:42,-0.001,0.0,0.0,0.0
09/04/2022,04:33:42,0.002,0.0,0.0,0.0
09/04/2022,04:34:43,0.001,0.0,0.0,0.0
09/04/2022,04:35:42,0.000,0.0,0.0,0.0
09/04/2022,04:36:42,0.001,0.0,0.0,0.0
09/04/2022,04:37:50,0.001,0.0,0.0,0.0
09/04/2022,04:38:50,0.000,0.0,0.0,0.0
09/04/2022,04:39:43,0.001,0.0,0.0,0.0
09/04/2022,04:40:43,-0.000,0.0,0.0,0.0
09/04/2022,04:41:42,0.000,0.0,0.0,0.0
09/04/2022,04:42:42,0.002,0.0,0.0,0.0
09/04/2022,04:43:42,0.001,0.0,0.0,0.0
09/04/2022,04:44:42,-0.000,0.0,0.0,0.0
09/04/2022,04:45:43,0.000,0.0,0.0,0.0
09/04/2022,04:46:43,0.001,0.0,0.0,0.0
09/04/2022,04:47:42,-0.000,0.0,0.0,0.0
09/04/2022,04:48:50,0.001,0.0,0.0,0.0
09/04/2022,04:49:41,0.001,0.0,0.0,0.0
09/04/2022,04:50:42,0.000,0.0,0.0,0.0
09/04/2022,04:51:43,-0.000,0.0,0.0,0.0
09/04/2022,04:52:43,0.000,0.0,0.0,0.0
09/04/2022,04:53:42,0.001,0.0,0.0,0.0
09/04/2022,04:54:42,0.001,0.0,0.0,0.0
09/04/2022,04:55:42,0.001,0.0,0.0,0.0
09/04/2022,04:56:51,-0.000,0.0,0.0,0.0
09/04/2022,04:58:43,0.001,0.0,0.0,0.0
09/04/2022,04:59:43,0.000,0.0,0.0,0.0
09/04/2022,05:00:51,0.000,0.0,0.0,0.0
09/04/2022,05:01:42,0.001,0.0,0.0,0.0
09/04/2022,05:02:42,-0.000,0.0,0.0,0.0
09/04/2022,05:03:42,0.001,0.0,0.0,0.0
09/04/2022,05:04:42,0.002,0.0,0.0,0.0
09/04/2022,05:05:43,0.002,0.0,0.0,0.0
09/04/2022,05:06:42,0.001,0.0,0.0,0.0
09/04/2022,05:07:43,0.001,0.0,0.0,0.0
09/04/2022,05:08:42,0.002,0.0,0.0,0.0
09/04/2022,05:09:42,0.001,0.0,0.0,0.0
09/04/2022,05:10:42,0.002,0.0,0.0,0.0
09/04/2022,05:11:43,0.001,0.0,0.0,0.0
09/04/2022,05:12:42,0.001,0.0,0.0,0.0
09/04/2022,05:13:44,0.001,0.0,0.0,0.0
09/04/2022,05:14:50,0.002,0.0,0.0,0.0
09/04/2022,05:15:50,0.001,0.0,0.0,0.0
09/04/2022,05:16:42,0.002,0.0,0.0,0.0
09/04/2022,05:17:42,0.001,0.0,0.0,0.0
09/04/2022,05:18:43,0.001,0.0,0.0,0.0
09/04/2022,05:19:42,0.002,0.0,0.0,0.0
09/04/2022,05:20:51,0.002,0.0,0.0,0.0
09/04/2022,05:21:42,0.001,0.0,0.0,0.0
09/04/2022,05:22:42,0.002,0.0,0.0,0.0
09/04/2022,05:23:42,0.002,0.0,0.0,0.0
09/04/2022,05:24:42,0.002,0.0,0.0,0.0
09/04/2022,05:25:42,0.002,0.0,0.0,0.0
09/04/2022,05:26:43,0.002,0.0,0.0,0.0
09/04/2022,05:27:43,0.004,0.0,0.0,0.0
09/04/2022,05:28:43,0.003,0.0,0.0,0.0
09/04/2022,05:29:42,0.004,0.0,0.0,0.0
09/04/2022,05:30:43,0.003,0.0,0.0,0.0
09/04/2022,05:31:42,0.004,0.0,0.0,0.0
09/04/2022,05:32:50,0.003,0.0,0.0,0.0
09/04/2022,05:33:41,0.003,0.0,0.0,0.0
09/04/2022,05:34:42,0.004,0.0,0.0,0.0
09/04/2022,05:35:42,0.003,0.0,0.0,0.0
09/04/2022,05:36:43,0.004,0.0,0.0,0.0
09/04/2022,05:37:42,0.004,0.0,0.0,0.0
09/04/2022,05:38:43,0.005,0.0,0.0,0.0
09/04/2022,05:39:42,0.004,0.0,0.0,0.0
09/04/2022,05:40:43,0.004,0.0,0.0,0.0
09/04/2022,05:41:43,0.005,0.0,0.0,0.0
09/04/2022,05:42:42,0.005,0.0,0.0,0.0
09/04/2022,05:43:42,0.006,0.0,0.0,0.0
09/04/2022,05:44:42,0.006,0.0,0.0,0.0
09/04/2022,05:45:43,0.007,0.0,0.0,0.0
09/04/2022,05:46:42,0.007,0.0,0.0,0.0
09/04/2022,05:47:50,0.007,0.0,0.001,0.001
09/04/2022,05:48:42,0.009,0.0,0.001,0.0
09/04/2022,05:49:42,0.008,0.0,0.001,0.0
09/04/2022,05:50:43,0.009,0.0,0.001,0.0
09/04/2022,05:51:43,0.010,0.0,0.001,0.0
09/04/2022,05:52:42,0.009,0.0,0.001,0.0
09/04/2022,05:53:42,0.009,0.0,0.001,0.0
09/04/2022,05:54:42,0.010,0.0,0.002,0.001
09/04/2022,05:55:42,0.011,0.0,0.002,0.0
09/04/2022,05:56:43,0.010,0.0,0.002,0.0
09/04/2022,05:57:42,0.012,0.0,0.002,0.0
09/04/2022,05:58:51,0.012,0.0,0.002,0.0
09/04/2022,06:00:43,0.014,0.0,0.003,0.001
09/04/2022,06:01:42,0.014,0.0,0.003,0.0
09/04/2022,06:02:43,0.014,0.0,0.003,0.0
09/04/2022,06:03:42,0.015,0.0,0.003,0.0
09/04/2022,06:04:43,0.016,0.0,0.004,0.001
09/04/2022,06:05:51,0.016,0.0,0.004,0.0
09/04/2022,06:06:42,0.017,0.0,0.004,0.0
09/04/2022,06:07:43,0.017,0.0,0.005,0.001
09/04/2022,06:08:43,0.018,0.0,0.005,0.0
09/04/2022,06:09:42,0.019,0.0,0.005,0.0
09/04/2022,06:10:43,0.019,0.0,0.005,0.0
09/04/2022,06:11:42,0.020,0.0,0.006,0.001
09/04/2022,06:12:42,0.021,0.0,0.006,0.0
09/04/2022,06:13:42,0.021,0.0,0.006,0.0
09/04/2022,06:14:42,0.022,0.0,0.007,0.001
09/04/2022,06:15:42,0.023,0.0,0.007,0.0
09/04/2022,06:16:43,0.024,0.0,0.008,0.001
09/04/2022,06:17:42,0.024,0.0,0.008,0.0
09/04/2022,06:18:51,0.026,0.0,0.008,0.0
09/04/2022,06:20:43,0.027,0.0,0.009,0.001
09/04/2022,06:21:43,0.027,0.0,0.01,0.001
09/04/2022,06:22:43,0.027,0.0,0.01,0.0
09/04/2022,06:23:51,0.028,0.0,0.011,0.001
09/04/2022,06:25:44,0.031,0.0,0.012,0.001
09/04/2022,06:26:42,0.032,0.0,0.012,0.0
09/04/2022,06:27:42,0.034,0.0,0.013,0.001
09/04/2022,06:28:43,0.033,0.0,0.013,0.0
09/04/2022,06:29:42,0.035,0.0,0.014,0.001
09/04/2022,06:30:51,0.036,0.0,0.014,0.0
09/04/2022,06:32:43,0.038,0.0,0.016,0.002
09/04/2022,06:33:42,0.038,0.0,0.016,0.0
09/04/2022,06:34:43,0.040,0.0,0.017,0.001
09/04/2022,06:35:43,0.041,0.0,0.018,0.001
09/04/2022,06:36:42,0.043,0.0,0.018,0.0
09/04/2022,06:37:43,0.043,0.0,0.019,0.001
09/04/2022,06:38:42,0.045,0.0,0.02,0.001
09/04/2022,06:39:43,0.046,0.0,0.021,0.001
09/04/2022,06:40:43,0.048,0.0,0.021,0.0
09/04/2022,06:41:51,0.049,0.0,0.022,0.001
09/04/2022,06:43:43,0.051,0.0,0.024,0.002
09/04/2022,06:44:42,0.053,0.0,0.025,0.001
09/04/2022,06:45:42,0.054,0.0,0.026,0.001
09/04/2022,06:46:42,0.055,0.0,0.026,0.0
09/04/2022,06:47:43,0.057,0.0,0.027,0.001
09/04/2022,06:48:51,0.057,0.0,0.028,0.001
09/04/2022,06:50:44,0.061,0.0,0.03,0.002
09/04/2022,06:51:42,0.063,0.0,0.031,0.001
09/04/2022,06:52:43,0.064,0.0,0.032,0.001
09/04/2022,06:53:43,0.066,0.0,0.033,0.001
09/04/2022,06:54:43,0.068,0.0,0.035,0.002
09/04/2022,06:55:43,0.070,0.0,0.036,0.001
09/04/2022,06:56:43,0.071,0.0,0.037,0.001
09/04/2022,06:57:42,0.072,0.0,0.038,0.001
09/04/2022,06:58:43,0.073,0.0,0.039,0.001
09/04/2022,06:59:43,0.076,0.0,0.041,0.002
09/04/2022,07:00:43,0.078,0.0,0.042,0.001
09/04/2022,07:01:42,0.080,0.0,0.043,0.001
09/04/2022,07:02:43,0.080,0.0,0.045,0.002
09/04/2022,07:03:43,0.083,0.0,0.046,0.001
09/04/2022,07:04:51,0.086,0.0,0.048,0.002
09/04/2022,07:06:43,0.089,0.0,0.05,0.002
09/04/2022,07:07:42,0.091,0.0,0.052,0.002
09/04/2022,07:08:43,0.094,0.0,0.053,0.001
09/04/2022,07:09:43,0.096,0.0,0.055,0.002
09/04/2022,07:10:43,0.096,0.0,0.056,0.001
09/04/2022,07:11:42,0.100,0.0,0.058,0.002
09/04/2022,07:12:43,0.103,0.0,0.06,0.002
09/04/2022,07:13:42,0.105,0.0,0.061,0.001
09/04/2022,07:14:42,0.107,0.0,0.063,0.002
09/04/2022,07:15:58,0.111,0.0,0.066,0.003
09/04/2022,07:17:43,0.114,0.0,0.069,0.003
09/04/2022,07:18:42,0.116,0.0,0.071,0.002
09/04/2022,07:19:42,0.118,0.0,0.073,0.002
09/04/2022,07:20:43,0.121,0.0,0.075,0.002
09/04/2022,07:21:42,0.124,0.0,0.077,0.002
09/04/2022,07:22:42,0.125,0.0,0.079,0.002
09/04/2022,07:23:43,0.129,0.0,0.081,0.002
09/04/2022,07:24:42,0.130,0.0,0.083,0.002
09/04/2022,07:25:42,0.132,0.0,0.085,0.002
09/04/2022,07:26:43,0.136,0.0,0.087,0.002
09/04/2022,07:27:42,0.139,0.0,0.09,0.003
09/04/2022,07:28:43,0.141,0.0,0.092,0.002
09/04/2022,07:29:42,0.144,0.0,0.094,0.002
09/04/2022,07:30:43,0.146,0.0,0.097,0.003
09/04/2022,07:31:43,0.148,0.0,0.099,0.002
09/04/2022,07:32:51,0.152,0.0,0.102,0.003
09/04/2022,07:33:42,0.154,0.0,0.104,0.002
09/04/2022,07:34:43,0.156,0.0,0.107,0.003
09/04/2022,07:35:43,0.159,0.0,0.11,0.003
09/04/2022,07:36:43,0.163,0.0,0.112,0.002
09/04/2022,07:37:43,0.166,0.0,0.115,0.003
09/04/2022,07:38:43,0.170,0.0,0.118,0.003
09/04/2022,07:39:42,0.173,0.0,0.121,0.003
09/04/2022,07:40:51,0.176,0.0,0.124,0.003
09/04/2022,07:41:42,0.178,0.0,0.126,0.002
09/04/2022,07:42:42,0.184,0.0,0.13,0.004
09/04/2022,07:43:43,0.187,0.0,0.133,0.003
09/04/2022,07:44:43,0.189,0.0,0.136,0.003
09/04/2022,07:45:42,0.193,0.0,0.139,0.003
09/04/2022,07:46:43,0.196,0.0,0.142,0.003
09/04/2022,07:47:42,0.200,0.0,0.145,0.003
09/04/2022,07:48:43,0.203,0.0,0.149,0.004
09/04/2022,07:49:43,0.207,0.0,0.152,0.003
09/04/2022,07:50:51,0.211,0.0,0.156,0.004
09/04/2022,07:52:43,0.218,1.0,0.163,0.007
09/04/2022,07:53:44,0.222,1.0,0.167,0.004
09/04/2022,07:54:42,0.225,1.0,0.17,0.003
09/04/2022,07:55:43,0.229,1.0,0.174,0.004
09/04/2022,07:56:42,0.233,1.0,0.178,0.004
09/04/2022,07:57:43,0.237,1.0,0.182,0.004
09/04/2022,07:58:51,0.241,1.0,0.186,0.004
09/04/2022,07:59:42,0.245,1.0,0.19,0.004
09/04/2022,08:00:43,0.247,1.0,0.194,0.004
09/04/2022,08:01:43,0.253,1.0,0.198,0.004
09/04/2022,08:02:42,0.255,1.0,0.202,0.004
09/04/2022,08:03:43,0.260,1.0,0.207,0.005
09/04/2022,08:04:42,0.264,1.0,0.211,0.004
09/04/2022,08:05:43,0.268,1.0,0.215,0.004
09/04/2022,08:06:43,0.272,1.0,0.22,0.005
09/04/2022,08:07:43,0.277,1.0,0.225,0.005
09/04/2022,08:08:51,0.282,1.0,0.23,0.005
09/04/2022,08:10:44,0.290,1.0,0.239,0.009
09/04/2022,08:11:42,0.295,1.0,0.244,0.005
09/04/2022,08:12:43,0.299,1.0,0.248,0.004
09/04/2022,08:13:42,0.305,1.0,0.253,0.005
09/04/2022,08:14:43,0.307,1.0,0.259,0.006
09/04/2022,08:15:42,0.312,1.0,0.264,0.005
09/04/2022,08:16:43,0.317,1.0,0.269,0.005
09/04/2022,08:17:43,0.321,1.0,0.274,0.005
09/04/2022,08:18:51,0.326,1.0,0.28,0.006
09/04/2022,08:19:42,0.332,1.0,0.285,0.005
09/04/2022,08:20:42,0.335,1.0,0.291,0.006
09/04/2022,08:21:43,0.338,1.0,0.296,0.005
09/04/2022,08:22:43,0.345,1.0,0.302,0.006
09/04/2022,08:23:43,0.350,1.0,0.308,0.006
09/04/2022,08:24:42,0.355,1.0,0.314,0.006
09/04/2022,08:25:43,0.360,1.0,0.32,0.006
09/04/2022,08:26:43,0.365,1.0,0.326,0.006
09/04/2022,08:27:43,0.370,1.0,0.332,0.006
09/04/2022,08:28:42,0.375,1.0,0.338,0.006
09/04/2022,08:29:42,0.380,1.0,0.344,0.006
09/04/2022,08:30:43,0.386,1.0,0.351,0.007
09/04/2022,08:31:43,0.390,1.0,0.357,0.006
09/04/2022,08:32:43,0.395,1.0,0.364,0.007
09/04/2022,08:33:51,0.402,1.0,0.371,0.007
09/04/2022,08:34:41,0.406,1.0,0.377,0.006
09/04/2022,08:35:43,0.411,1.0,0.384,0.007
09/04/2022,08:36:43,0.416,1.0,0.391,0.007
09/04/2022,08:37:43,0.421,1.0,0.398,0.007
09/04/2022,08:38:43,0.426,1.0,0.405,0.007
09/04/2022,08:39:42,0.431,1.0,0.412,0.007
09/04/2022,08:40:43,0.438,1.0,0.419,0.007
09/04/2022,08:41:43,0.442,1.0,0.427,0.008
09/04/2022,08:42:42,0.447,1.0,0.434,0.007
09/04/2022,08:43:51,0.454,1.0,0.443,0.009
09/04/2022,08:44:42,0.459,1.0,0.449,0.006
09/04/2022,08:45:42,0.464,1.0,0.457,0.008
09/04/2022,08:46:43,0.470,1.0,0.465,0.008
09/04/2022,08:47:43,0.476,1.0,0.473,0.008
09/04/2022,08:48:43,0.481,1.0,0.48,0.007
09/04/2022,08:49:43,0.485,1.0,0.489,0.009
09/04/2022,08:50:55,0.493,1.0,0.498,0.009
09/04/2022,08:52:52,0.506,1.0,0.514,0.016
09/04/2022,08:54:43,0.513,1.0,0.53,0.016
09/04/2022,08:55:43,0.520,1.0,0.538,0.008
09/04/2022,08:56:43,0.527,1.0,0.547,0.009
09/04/2022,08:57:51,0.533,1.0,0.557,0.01
09/04/2022,08:58:42,0.536,1.0,0.565,0.008
09/04/2022,08:59:43,0.543,1.0,0.574,0.009
09/04/2022,09:00:43,0.552,1.0,0.583,0.009
09/04/2022,09:01:42,0.560,1.0,0.592,0.009
09/04/2022,09:02:43,0.565,1.0,0.602,0.01
09/04/2022,09:03:43,0.569,1.0,0.611,0.009
09/04/2022,09:04:43,0.576,1.0,0.621,0.01
09/04/2022,09:05:43,0.581,1.0,0.63,0.009
09/04/2022,09:06:43,0.588,1.0,0.64,0.01
09/04/2022,09:07:51,0.597,1.0,0.651,0.011
09/04/2022,09:08:42,0.606,1.0,0.66,0.009
09/04/2022,09:09:43,0.610,1.0,0.67,0.01
09/04/2022,09:10:43,0.618,1.0,0.68,0.01
09/04/2022,09:11:42,0.611,1.0,0.691,0.011
09/04/2022,09:12:44,0.627,1.0,0.701,0.01
09/04/2022,09:13:42,0.632,1.0,0.711,0.01
09/04/2022,09:14:43,0.637,1.0,0.722,0.011
09/04/2022,09:15:43,0.646,1.0,0.733,0.011
09/04/2022,09:16:43,0.655,2.0,0.743,0.01
09/04/2022,09:17:43,0.658,2.0,0.754,0.011
09/04/2022,09:18:51,0.551,1.0,0.766,0.012
09/04/2022,09:20:43,0.607,1.0,0.786,0.02
09/04/2022,09:21:43,0.686,2.0,0.798,0.012
09/04/2022,09:22:43,0.691,2.0,0.809,0.011
09/04/2022,09:23:43,0.695,2.0,0.82,0.011
09/04/2022,09:24:43,0.699,2.0,0.832,0.012
09/04/2022,09:25:45,0.704,2.0,0.844,0.012
09/04/2022,09:26:42,0.713,2.0,0.856,0.012
09/04/2022,09:27:43,0.720,2.0,0.868,0.012
09/04/2022,09:28:51,0.725,2.0,0.881,0.013
09/04/2022,09:29:44,0.733,2.0,0.892,0.011
09/04/2022,09:30:45,0.738,2.0,0.904,0.012
09/04/2022,09:31:51,0.742,2.0,0.918,0.014
09/04/2022,09:32:41,0.749,2.0,0.929,0.011
09/04/2022,09:33:43,0.759,2.0,0.941,0.012
09/04/2022,09:34:43,0.767,2.0,0.954,0.013
09/04/2022,09:35:42,0.777,2.0,0.967,0.013
09/04/2022,09:36:43,0.786,2.0,0.98,0.013
09/04/2022,09:37:42,0.794,2.0,0.993,0.013
09/04/2022,09:38:43,0.803,2.0,1.006,0.013
09/04/2022,09:39:42,0.808,2.0,1.02,0.014
09/04/2022,09:40:43,0.804,2.0,1.033,0.013
09/04/2022,09:41:43,0.816,2.0,1.047,0.014
09/04/2022,09:42:52,0.820,2.0,1.063,0.016
09/04/2022,09:43:43,0.828,2.0,1.074,0.011
09/04/2022,09:44:42,0.829,2.0,1.088,0.014
09/04/2022,09:45:43,0.840,2.0,1.102,0.014
09/04/2022,09:46:43,0.839,2.0,1.116,0.014
09/04/2022,09:47:43,0.603,1.0,1.129,0.013
09/04/2022,09:48:43,0.856,2.0,1.142,0.013
09/04/2022,09:49:43,0.869,2.0,1.156,0.014
09/04/2022,09:50:43,0.889,2.0,1.171,0.015
09/04/2022,09:51:43,0.903,2.0,1.185,0.014
09/04/2022,09:52:43,0.880,2.0,1.2,0.015
09/04/2022,09:53:43,0.893,2.0,1.213,0.013
09/04/2022,09:54:43,0.884,2.0,1.228,0.015
09/04/2022,09:55:43,0.607,1.0,1.239,0.011
09/04/2022,09:56:43,0.897,2.0,1.252,0.013
09/04/2022,09:57:43,0.913,2.0,1.268,0.016
09/04/2022,09:58:43,0.932,2.0,1.283,0.015
09/04/2022,09:59:43,0.935,2.0,1.298,0.015
09/04/2022,10:00:43,0.942,2.0,1.314,0.016
09/04/2022,10:01:42,0.948,2.0,1.33,0.016
09/04/2022,10:02:43,0.953,2.0,1.346,0.016
09/04/2022,10:03:52,0.969,2.0,1.364,0.018
09/04/2022,10:05:43,0.986,2.0,1.395,0.031
09/04/2022,10:06:43,0.999,2.0,1.411,0.016
09/04/2022,10:07:43,1.016,2.0,1.427,0.016
09/04/2022,10:08:42,1.018,2.0,1.444,0.017
09/04/2022,10:09:43,0.994,2.0,1.461,0.017
09/04/2022,10:10:43,1.018,2.0,1.479,0.018
09/04/2022,10:11:43,0.903,2.0,1.495,0.016
09/04/2022,10:12:43,0.656,2.0,1.506,0.011
09/04/2022,10:13:43,1.023,2.0,1.521,0.015
09/04/2022,10:14:43,1.028,2.0,1.535,0.014
09/04/2022,10:15:42,1.045,2.0,1.55,0.015
09/04/2022,10:16:43,1.051,2.0,1.567,0.017
09/04/2022,10:17:43,1.067,2.0,1.585,0.018
09/04/2022,10:18:43,1.082,2.0,1.602,0.017
09/04/2022,10:19:43,1.069,2.0,1.619,0.017
09/04/2022,10:20:43,0.967,2.0,1.637,0.018
09/04/2022,10:21:43,0.732,2.0,1.652,0.015
09/04/2022,10:22:43,0.718,2.0,1.666,0.014
09/04/2022,10:23:42,1.046,2.0,1.683,0.017
09/04/2022,10:24:43,0.727,2.0,1.7,0.017
09/04/2022,10:25:43,0.688,2.0,1.713,0.013
09/04/2022,10:26:43,0.682,2.0,1.725,0.012
09/04/2022,10:27:51,0.893,2.0,1.738,0.013
09/04/2022,10:28:42,1.119,3.0,1.754,0.016
09/04/2022,10:29:43,1.111,3.0,1.772,0.018
09/04/2022,10:30:43,1.121,3.0,1.791,0.019
09/04/2022,10:31:43,1.111,3.0,1.81,0.019
09/04/2022,10:32:43,1.106,3.0,1.828,0.018